Theta_e
313 313 313 317 317 316 313 312 312 312 308 313 317 321 321 317 322 326 327 326 327 327 327 327 326 326 325 324 323 319 322 323 324 324 323 320 320 317 322 323 323 329 330 331 337
311 314 314 313 315 317 317 314 312 312 313 308 314 318 322 319 319 324 323 326 325 327 327 325 324 325 323 324 323 321 322 324 321 322 322 321 320 319 320 320 322 331 335 336 337
310 313 314 314 313 315 317 317 316 312 313 313 308 316 321 319 321 320 318 317 324 327 328 326 325 324 326 324 325 324 325 324 324 323 322 323 322 321 320 320 322 325 334 335 335
311 313 314 313 313 312 313 315 317 317 313 313 310 315 321 319 318 321 322 321 323 327 327 325 325 326 327 327 324 327 324 324 324 323 324 324 323 324 322 321 318 317 325 333 332
312 311 311 311 311 311 311 311 314 317 315 313 313 313 321 320 320 320 322 324 324 326 327 324 326 326 327 325 325 326 325 324 323 323 322 323 324 324 323 320 319 318 328 332 331
311 311 310 310 309 309 309 309 312 315 317 312 313 312 320 320 318 319 320 322 326 326 326 325 324 324 325 326 326 324 324 323 323 322 321 323 322 322 320 318 317 317 316 324 331
311 311 310 309 309 309 309 311 310 312 316 313 313 313 317 315 318 320 320 321 321 323 325 326 325 325 324 326 323 323 325 323 323 323 323 321 322 321 318 317 317 316 315 313 318
311 310 309 309 309 308 310 311 312 311 314 316 313 315 313 313 311 318 320 321 320 324 324 324 325 323 325 324 323 324 324 327 324 323 322 322 326 320 317 316 317 314 312 313 315
310 310 309 308 308 309 309 310 311 311 313 316 315 313 312 311 315 310 315 321 322 324 324 324 324 324 323 327 328 326 326 324 325 322 322 321 324 320 317 316 316 315 314 313 314
308 309 309 308 308 309 309 311 310 311 313 315 314 313 312 315 314 313 315 320 321 321 322 322 320 324 325 327 327 325 325 323 324 322 320 320 320 319 317 317 316 313 311 312 312
307 308 308 307 307 308 310 311 308 309 313 316 316 313 311 312 316 315 318 320 320 320 323 321 324 325 324 324 324 321 320 321 319 318 320 319 319 319 316 315 314 313 312 311 311
307 308 308 306 304 306 310 308 307 308 312 312 314 312 311 312 318 318 316 320 320 321 320 322 324 320 319 320 322 323 324 324 320 318 318 318 319 317 316 316 315 316 316 314 312
307 308 307 306 305 305 309 309 309 309 311 312 313 314 312 312 313 317 318 318 320 321 321 322 319 318 319 319 322 322 323 322 322 319 317 318 320 318 316 315 315 314 314 313 313
306 307 306 305 306 307 308 308 309 309 311 308 315 314 314 313 314 312 319 317 319 322 320 320 318 318 318 320 319 322 318 320 320 322 323 317 323 318 315 314 313 312 311 310 309
304 305 305 305 304 306 306 307 308 307 310 307 312 312 312 313 313 311 318 316 317 317 318 320 320 319 320 319 317 319 317 318 319 320 320 321 323 319 315 314 313 312 310 309 307
303 303 303 304 303 304 305 306 307 309 311 311 312 314 315 314 312 315 316 314 313 315 316 315 314 315 316 316 317 317 319 319 319 318 324 319 318 316 314 313 313 312 311 309 310
302 303 303 304 303 304 304 306 308 309 306 310 313 314 313 314 314 315 317 318 318 319 317 316 316 315 316 317 317 318 320 321 325 324 321 315 318 317 313 313 310 311 311 310 308
301 301 302 303 303 303 305 305 309 305 306 308 311 313 313 312 314 314 317 318 316 314 313 317 320 317 315 316 317 318 319 317 318 319 317 314 321 318 313 313 312 310 309 308 305
301 301 302 302 302 303 304 306 306 299 305 309 310 312 313 312 313 313 315 316 315 315 314 316 315 313 314 314 316 319 322 319 320 310 321 320 316 311 311 311 309 308 307 307 306
302 301 301 301 302 303 305 306 300 306 304 308 310 310 312 312 314 314 314 314 315 314 310 313 313 313 313 315 316 317 315 321 321 322 321 315 314 315 311 311 309 308 307 305 303
300 300 300 300 301 302 305 305 302 303 306 307 307 311 310 313 313 315 315 312 313 315 314 314 312 314 314 318 318 318 320 320 320 319 320 318 315 311 312 311 309 309 306 304 302
299 300 300 301 302 301 303 300 304 304 305 307 308 306 309 310 312 313 314 311 312 314 316 315 316 317 316 313 313 315 316 317 319 317 318 317 313 313 311 310 308 305 305 303 301
297 300 300 301 303 302 301 303 303 304 305 305 307 308 307 311 313 312 312 310 311 314 316 315 317 318 318 314 314 317 316 316 316 314 317 315 313 309 309 309 306 304 303 301 300
296 300 301 301 300 300 299 300 303 303 304 306 306 308 309 309 309 312 313 311 310 313 314 314 315 313 314 313 314 318 318 317 318 319 317 315 313 311 312 309 305 302 300 297 296
298 300 295 301 300 300 299 301 302 305 303 304 305 307 306 310 310 311 311 309 311 312 314 315 316 313 313 313 313 316 317 318 318 317 319 314 315 313 313 313 307 303 301 298 295
298 297 297 298 298 300 300 301 302 303 304 305 305 306 307 308 310 309 309 312 312 312 314 314 315 314 313 314 314 315 316 316 316 315 315 315 314 312 312 310 302 299 296 294 291
294 297 298 299 298 299 298 299 300 303 304 303 305 304 306 307 308 309 308 308 309 312 314 315 314 315 317 313 312 312 312 315 314 314 315 316 313 309 309 303 296 293 291 289 287
Wind_Speed
18 16 13 13 14 12 10 9 9 8 8 8 6 6 6 8 10 9 6 4 4 6 10 13 10 16 4 4 5 3 3 2 3 4 4 5 3 7 2 3 3 4 2 6 18
22 19 16 15 12 13 13 11 9 9 8 8 7 6 5 5 6 8 16 12 12 11 8 7 6 11 4 3 4 4 3 6 2 2 1 3 5 5 4 6 4 3 5 6 21
22 20 18 15 14 12 11 13 11 9 9 8 9 6 3 1 3 6 9 19 19 12 7 4 4 2 2 2 2 2 5 3 1 2 3 2 3 5 2 3 3 2 5 8 10
21 18 17 15 14 13 10 9 12 11 10 9 8 6 3 4 5 3 10 12 19 15 6 2 2 1 2 3 2 2 5 3 4 2 0 4 3 4 3 6 4 6 6 10 10
21 20 18 15 14 13 13 11 9 12 11 10 8 8 5 3 6 5 12 6 11 12 9 3 3 3 4 3 2 4 4 7 7 3 5 4 5 5 6 10 11 5 5 10 11
20 20 18 17 18 15 13 13 12 11 13 11 9 9 5 10 6 16 12 6 6 11 8 7 5 4 3 4 3 3 4 4 3 5 3 4 5 3 5 8 9 8 7 10 12
23 21 19 17 17 16 14 14 14 12 13 12 11 9 4 10 5 4 10 8 8 10 10 17 11 1 2 2 3 3 5 5 4 4 3 3 6 7 9 6 8 11 10 9 13
25 24 21 18 16 16 14 14 13 13 11 14 10 7 5 8 24 17 2 7 14 12 13 12 11 4 4 2 5 4 2 3 4 3 5 5 15 6 10 6 10 10 9 8 11
25 24 21 19 16 16 15 12 12 11 11 12 8 6 6 5 9 26 20 7 13 10 7 5 5 4 2 3 3 4 4 4 5 5 4 7 6 8 9 5 8 9 9 8 8
26 27 23 19 19 16 16 12 10 7 9 7 7 4 5 6 9 23 25 14 5 5 2 2 2 4 4 6 12 8 7 4 4 2 3 7 13 13 8 6 9 8 9 9 9
26 28 25 21 19 17 17 9 6 1 8 6 7 2 2 12 9 18 16 13 5 3 7 2 5 14 13 10 9 3 4 6 2 6 3 9 14 12 9 5 8 9 9 9 11
27 28 27 23 21 19 22 6 6 3 4 15 3 13 3 7 4 6 20 9 7 9 5 3 15 8 5 5 5 7 11 8 7 8 4 8 13 10 6 7 8 11 14 14 11
26 29 27 24 20 20 24 15 15 2 3 3 11 12 4 6 3 8 14 6 5 9 11 16 4 14 10 6 6 9 12 4 11 5 7 5 17 11 11 7 9 10 13 13 17
27 29 28 24 16 17 14 24 10 6 1 5 8 10 7 3 5 13 17 9 4 16 11 12 15 7 8 12 9 14 7 6 6 1 6 3 12 13 10 14 9 10 9 11 11
29 27 27 29 10 13 11 19 15 3 5 9 10 13 14 13 9 7 16 3 8 7 6 6 11 17 11 6 9 6 6 8 8 5 4 16 6 13 5 9 6 8 11 10 9
32 31 31 31 18 18 19 24 14 7 8 3 7 16 14 18 6 5 10 4 4 6 2 6 2 6 8 8 12 3 2 1 2 2 9 11 7 12 12 10 5 11 7 5 5
33 34 35 34 18 23 27 19 7 12 4 7 8 14 20 15 16 13 17 16 11 10 13 4 5 2 2 5 3 4 3 3 5 6 9 6 8 18 7 7 8 8 6 8 7
32 34 34 31 31 32 26 8 14 15 9 2 7 12 21 14 18 18 18 17 22 6 7 13 7 13 5 7 7 10 11 6 6 5 4 1 8 10 9 12 8 6 9 5 6
28 31 30 32 35 37 10 17 15 5 10 10 11 11 16 19 8 18 21 22 21 23 11 12 14 3 1 4 7 4 12 8 6 3 4 4 7 8 9 2 4 8 9 8 7
26 18 20 31 35 28 12 18 9 4 8 8 16 11 17 21 14 21 21 18 19 24 7 6 1 5 6 4 3 6 7 3 6 4 5 3 4 6 6 6 5 6 8 7 8
20 5 18 33 33 9 12 10 4 6 6 16 14 11 12 11 20 13 9 9 24 20 20 2 4 3 8 13 15 5 7 3 3 4 6 2 5 6 5 5 8 6 8 10 8
7 5 21 35 10 5 12 7 12 3 3 8 2 6 11 16 16 19 19 15 17 21 23 13 3 5 13 1 4 9 13 15 7 8 2 1 5 7 2 4 5 8 9 8 9
5 2 20 28 10 4 4 5 4 8 9 7 11 5 4 13 11 22 21 11 14 19 21 14 6 4 4 2 1 9 12 13 14 3 6 5 4 0 8 9 10 10 8 9 10
3 4 4 6 3 4 5 5 5 4 4 2 5 8 9 10 8 11 13 6 13 18 18 23 5 7 11 5 7 10 16 17 14 6 9 9 2 4 12 12 9 6 8 7 9
2 3 3 7 10 4 3 9 10 5 7 9 6 15 18 12 8 12 8 17 9 20 19 14 13 9 5 4 4 12 19 17 13 8 6 4 10 3 14 15 7 6 8 8 10
4 4 2 6 8 13 13 6 18 6 10 10 10 10 6 13 9 9 7 6 12 16 17 11 5 10 5 4 4 5 17 20 24 18 17 5 6 10 7 9 9 9 10 6 8
5 2 4 10 8 11 9 8 13 8 6 10 17 4 13 21 13 8 6 6 7 14 18 14 7 8 13 8 5 3 14 19 16 15 16 13 5 8 6 12 8 7 8 3 7
Wind_Direction
241 233 231 230 229 227 228 232 237 244 248 246 262 277 286 282 284 297 279 246 277 301 320 332 351 2 17 357 347 79 62 248 260 24 279 338 36 340 308 39 347 23 61 304 164
239 235 229 230 228 227 228 228 234 239 242 247 245 260 282 292 304 269 254 253 244 278 321 4 356 353 0 359 3 95 137 224 166 284 265 330 17 321 355 353 344 10 33 130 160
234 229 232 224 223 223 224 227 231 236 239 241 237 238 265 340 10 251 283 248 243 253 274 292 314 342 339 356 296 165 186 229 261 278 340 290 300 318 12 294 223 212 190 176 183
228 220 218 218 220 223 223 225 230 232 231 235 236 225 203 146 215 5 352 254 224 227 233 264 325 166 214 223 258 258 245 207 285 139 9 269 265 301 241 236 271 272 245 181 193
220 219 222 222 223 225 227 229 231 229 228 227 227 212 162 188 246 261 360 64 182 206 222 208 211 180 196 222 316 204 266 278 273 255 242 256 248 251 254 275 282 286 197 206 210
221 221 221 226 228 229 227 227 225 231 227 221 218 204 200 232 254 250 268 42 162 194 211 207 217 220 247 235 185 276 257 265 262 289 283 246 257 167 270 263 283 296 257 234 219
224 223 226 228 230 226 223 221 221 224 223 221 213 207 216 225 224 145 236 253 229 214 203 221 239 151 8 296 332 270 278 288 225 245 262 306 280 232 247 279 279 281 270 250 234
224 225 226 225 225 222 217 217 221 218 219 217 211 194 238 226 229 246 249 244 234 230 226 235 227 210 187 273 359 350 289 235 241 198 248 164 258 265 254 243 266 292 291 266 261
226 223 216 220 220 218 213 210 214 217 215 206 178 154 258 238 225 225 234 229 201 203 206 189 183 198 71 196 260 214 249 247 313 229 247 183 278 253 252 224 272 285 304 291 269
229 224 223 213 212 206 201 192 206 206 200 189 173 122 248 204 191 213 218 214 170 134 94 103 96 161 167 183 227 231 244 263 226 267 219 260 264 262 276 295 293 301 298 294 282
225 218 211 203 195 195 183 144 117 285 210 199 162 194 94 194 185 202 193 177 109 157 189 222 201 219 212 222 248 259 236 244 270 268 296 275 265 259 258 270 276 285 277 273 269
220 214 208 204 195 192 188 176 175 168 192 237 213 216 68 176 133 202 184 171 168 199 153 174 231 212 205 207 206 242 263 267 275 262 246 269 268 265 263 255 239 255 270 267 269
214 207 203 199 198 197 194 184 174 4 90 233 211 205 189 197 223 200 175 158 160 189 195 223 224 184 183 183 189 229 236 229 251 340 291 287 276 276 265 248 255 260 257 264 258
210 204 203 199 194 195 197 199 181 87 215 230 193 216 183 127 244 210 188 165 207 211 189 227 220 159 204 215 187 239 187 233 250 284 259 174 285 278 280 266 241 248 263 258 261
208 203 200 193 160 177 173 189 189 78 216 197 180 166 168 186 124 220 185 61 178 175 158 202 179 202 215 195 176 229 190 217 231 222 257 259 277 276 218 265 248 261 248 260 247
208 206 199 193 196 185 166 171 131 213 210 170 142 174 162 199 189 127 170 104 132 165 294 236 70 178 209 190 192 106 177 8 51 149 248 246 210 261 266 262 243 247 276 297 133
208 205 199 189 185 173 174 155 202 215 156 192 189 178 176 182 190 176 182 192 189 188 213 169 199 193 204 122 122 153 138 254 236 220 254 187 198 244 273 289 231 228 206 139 148
207 207 202 190 183 182 172 189 216 200 201 272 159 177 194 167 199 196 181 202 205 189 178 207 209 185 183 196 180 194 183 196 209 220 255 236 228 253 234 262 238 241 183 149 122
196 197 192 193 187 183 177 200 210 194 153 157 165 180 200 192 173 188 206 206 202 200 193 198 227 101 238 166 152 174 212 235 276 165 270 206 274 292 257 263 141 146 135 145 97
181 177 192 192 193 187 200 213 182 226 192 158 182 196 193 197 195 189 195 208 208 197 194 196 165 190 187 135 220 196 153 184 214 238 248 232 247 237 336 266 182 145 135 91 76
171 178 181 190 187 204 206 203 201 198 191 180 194 176 207 181 206 199 200 221 192 193 194 118 177 182 139 203 184 164 197 166 171 221 238 220 254 224 283 195 174 148 98 93 74
147 177 174 176 195 199 207 160 189 257 195 222 137 167 189 198 204 205 205 202 190 186 193 180 226 181 201 275 208 212 205 207 221 220 254 163 266 267 235 119 30 71 84 82 75
139 129 176 173 202 180 121 181 210 158 204 189 216 214 192 190 208 210 222 205 185 176 180 167 198 168 182 294 177 218 209 209 216 110 205 162 246 263 84 51 46 85 55 48 52
135 178 155 194 190 165 157 155 186 208 175 134 206 172 199 229 208 192 224 220 192 199 190 170 172 208 222 194 134 203 200 213 202 224 204 224 248 226 91 80 86 74 81 58 44
209 192 195 168 185 143 119 181 179 169 191 169 213 200 207 207 226 216 208 211 196 217 208 181 219 202 210 177 152 190 193 194 203 213 206 225 226 168 158 153 134 120 54 31 29
168 152 111 146 165 160 179 190 197 174 170 196 226 188 190 212 206 202 173 206 200 199 197 205 226 188 206 225 178 197 207 203 210 221 229 204 211 142 150 103 93 65 71 34 24
165 264 109 161 147 185 211 186 191 187 227 206 203 139 194 212 199 220 214 219 205 186 192 189 177 167 221 176 131 250 216 203 210 209 207 213 183 159 133 124 105 94 87 48 15